Home   Weather   Mesa   Past weeks

Flag for USA Past Weather in Mesa, Arizona, USA — Yesterday and Last 2 Weeks

Now
37 °F

Clear.


Feels Like: 33 °F
Forecast: 38 / 61 °F
Wind: 6 mph from Southeast

Location: Phoenix–Mesa Gateway Airport

Current Time: Feb 24, 2017 at 4:11:04 am

Latest Report: Feb 24, 2017 at 3:35 am


Visibility: 10 mi

Pressure: 30.02 "Hg

Humidity: 81%

Dew Point: 32 °F

Location of MesaLocation

Past Weather in Mesa — Graph

°F

Mesa Temperature Yesterday

Maximum temperature yesterday: 61 °F (at 12:55 am)
Minimum temperature yesterday: 46 °F (at 5:47 am)
Average temperature yesterday: 54 °F

High & Low Weather Summary for the Past Weeks

 TemperatureHumidityPressure
High82 °F (Feb 10, 2:47 pm)100% (Feb 19, 11:52 pm)30.34 "Hg (Feb 19, 11:52 pm)
Low37 °F (Feb 24, 2:55 am)20% (Feb 15, 1:47 pm)29.55 "Hg (Feb 18, 1:50 pm)
Average59 °F59%29.99 "Hg
* Reported Feb 9 2:15 am — Feb 24 2:55 am, Mesa, Weather by CustomWeather, © 2017

Note: Actual official high and low records may vary slightly from our data, if they occured in-between our weather recording intervals... More about our weather records

Advertising

Mesa Weather History for the Previous 24 Hours

Scroll right to see more
 ConditionsComfort  
Time TempWeatherWind HumidityBarometerVisibility
2:55 am
Fri, Feb 24
37 °FClear.5 mph81%30.02 "Hg10 mi
2:35 am39 °FClear.5 mph75%30.02 "Hg10 mi
2:15 am41 °FClear.6 mph70%30.02 "Hg10 mi
1:55 am41 °FClear.No wind70%30.02 "Hg10 mi
1:35 am41 °FClear.No wind70%30.02 "Hg10 mi
1:15 am43 °FClear.No wind61%30.01 "Hg10 mi
12:55 am45 °FClear.No wind49%30.01 "Hg10 mi
12:35 am43 °FClear.3 mph61%30.01 "Hg10 mi
12:15 am43 °FClear.5 mph61%30.00 "Hg10 mi
11:47 pm
Thu, Feb 23
46 °FClear.No wind50%30.00 "Hg20 mi
10:47 pm50 °FClear.7 mph35%29.99 "Hg20 mi
9:47 pm52 °FClear.7 mph35%29.97 "Hg20 mi
7:47 pm54 °FClear.8 mph28%29.93 "Hg20 mi
6:47 pm55 °FClear.7 mph28%29.92 "Hg20 mi
5:47 pm59 °FSunny.10 mph23%29.92 "Hg45 mi
4:47 pm61 °FSunny.12 mph22%29.91 "Hg45 mi
3:47 pm61 °FSunny.9 mph20%29.90 "Hg45 mi
2:47 pm59 °FSunny.12 mph23%29.90 "Hg45 mi
1:53 pm59 °FSunny.9 mph23%29.90 "Hg20 mi
12:54 pm57 °FSunny.12 mph27%29.93 "Hg20 mi
10:47 am55 °FSunny.10 mph33%29.97 "Hg30 mi
9:58 am54 °FSunny.9 mph38%29.95 "Hg45 mi
8:47 am50 °FSunny.5 mph47%29.94 "Hg45 mi
7:47 am48 °FSunny.5 mph50%29.93 "Hg45 mi
6:50 am46 °FClear.8 mph57%29.92 "Hg20 mi
5:47 am46 °FClear.7 mph66%29.90 "Hg20 mi
4:50 am50 °FClear.7 mph54%29.88 "Hg20 mi
4:35 am52 °FClear.6 mph47%29.88 "Hg10 mi
4:15 am52 °FClear.6 mph50%29.87 "Hg10 mi
Weather by CustomWeather, © 2017

See weather overviewHow to use our weather pages